QPF
0.00 0.00 0.00 0.00 0.00 0.00 0.00 0.00 0.00 0.01 0.01 0.02 0.04 0.07 0.14 0.23 0.33 0.44 0.50 0.48 0.45 0.42 0.39 0.32 0.27 0.22 0.17 0.14 0.11 0.11 0.09 0.07 0.05 0.03 0.02 0.01 0.00 0.00 0.00 0.00 0.00 0.00 0.00
0.00 0.00 0.00 0.00 0.00 0.00 0.00 0.00 0.01 0.03 0.05 0.11 0.20 0.35 0.51 0.56 0.62 0.63 0.61 0.62 0.62 0.60 0.56 0.50 0.43 0.32 0.24 0.19 0.15 0.13 0.10 0.08 0.05 0.03 0.02 0.01 0.00 0.00 0.00 0.00 0.00 0.00 0.00
0.00 0.00 0.00 0.00 0.00 0.00 0.01 0.01 0.02 0.08 0.15 0.25 0.43 0.64 0.78 0.81 0.82 0.77 0.69 0.66 0.67 0.65 0.64 0.63 0.53 0.40 0.30 0.24 0.19 0.15 0.12 0.07 0.03 0.01 0.00 0.00 0.00 0.00 0.00 0.00 0.00 0.00 0.00
0.00 0.00 0.00 0.00 0.00 0.00 0.01 0.03 0.05 0.16 0.27 0.38 0.58 0.75 0.96 1.14 1.17 1.02 0.80 0.66 0.61 0.59 0.54 0.49 0.43 0.37 0.28 0.19 0.12 0.07 0.03 0.01 0.00 0.00 0.00 0.00 0.00 0.00 0.00 0.00 0.00 0.00 0.00
0.00 0.00 0.00 0.00 0.00 0.00 0.01 0.04 0.07 0.17 0.30 0.45 0.62 0.77 0.97 1.08 1.07 0.85 0.63 0.54 0.55 0.54 0.49 0.41 0.33 0.23 0.14 0.06 0.03 0.01 0.00 0.00 0.00 0.00 0.00 0.00 0.00 0.00 0.00 0.00 0.00 0.00 0.00
0.00 0.00 0.00 0.00 0.00 0.01 0.01 0.03 0.07 0.15 0.25 0.37 0.48 0.61 0.71 0.72 0.61 0.52 0.51 0.54 0.48 0.40 0.33 0.24 0.15 0.09 0.04 0.02 0.01 0.00 0.00 0.00 0.00 0.00 0.00 0.00 0.00 0.00 0.00 0.00 0.00 0.00 0.00
0.01 0.01 0.01 0.01 0.01 0.02 0.02 0.04 0.08 0.16 0.23 0.28 0.35 0.46 0.53 0.52 0.47 0.44 0.42 0.37 0.32 0.25 0.16 0.10 0.07 0.04 0.02 0.01 0.00 0.00 0.00 0.00 0.00 0.00 0.00 0.00 0.00 0.00 0.00 0.00 0.00 0.00 0.00
0.01 0.01 0.01 0.01 0.01 0.02 0.03 0.04 0.08 0.14 0.16 0.18 0.21 0.25 0.28 0.30 0.31 0.28 0.22 0.19 0.15 0.11 0.08 0.06 0.04 0.02 0.01 0.00 0.00 0.00 0.00 0.00 0.00 0.00 0.00 0.00 0.00 0.00 0.00 0.00 0.00 0.00 0.00
0.01 0.01 0.01 0.02 0.02 0.02 0.03 0.04 0.06 0.09 0.10 0.12 0.14 0.12 0.11 0.11 0.10 0.10 0.09 0.07 0.04 0.03 0.02 0.01 0.01 0.00 0.00 0.00 0.00 0.00 0.00 0.00 0.00 0.00 0.00 0.00 0.00 0.00 0.00 0.00 0.00 0.00 0.00
0.02 0.02 0.02 0.01 0.02 0.02 0.02 0.02 0.03 0.05 0.05 0.06 0.06 0.05 0.04 0.03 0.03 0.03 0.02 0.02 0.01 0.01 0.01 0.01 0.00 0.00 0.00 0.00 0.00 0.00 0.00 0.00 0.00 0.00 0.00 0.00 0.00 0.00 0.00 0.00 0.00 0.00 0.01
0.02 0.02 0.01 0.01 0.01 0.01 0.01 0.01 0.02 0.03 0.03 0.02 0.02 0.02 0.01 0.01 0.01 0.01 0.01 0.01 0.01 0.01 0.01 0.00 0.00 0.00 0.00 0.00 0.00 0.00 0.00 0.00 0.00 0.00 0.00 0.00 0.00 0.00 0.00 0.00 0.00 0.00 0.01
0.02 0.01 0.01 0.01 0.01 0.01 0.01 0.01 0.01 0.01 0.01 0.01 0.01 0.00 0.00 0.00 0.00 0.00 0.00 0.00 0.00 0.00 0.00 0.00 0.00 0.00 0.00 0.00 0.00 0.00 0.00 0.00 0.00 0.00 0.00 0.00 0.00 0.00 0.00 0.00 0.00 0.01 0.01
0.01 0.01 0.01 0.01 0.00 0.00 0.00 0.00 0.01 0.00 0.00 0.00 0.00 0.00 0.00 0.00 0.00 0.00 0.00 0.00 0.00 0.00 0.00 0.00 0.00 0.00 0.00 0.00 0.00 0.00 0.00 0.00 0.00 0.00 0.00 0.00 0.00 0.00 0.00 0.01 0.01 0.01 0.01
0.01 0.01 0.00 0.00 0.00 0.00 0.00 0.00 0.00 0.00 0.00 0.00 0.00 0.00 0.00 0.00 0.00 0.00 0.00 0.00 0.00 0.00 0.00 0.00 0.00 0.00 0.00 0.00 0.00 0.00 0.00 0.00 0.00 0.00 0.00 0.00 0.00 0.00 0.01 0.01 0.02 0.02 0.03
0.01 0.00 0.00 0.00 0.00 0.00 0.00 0.00 0.00 0.00 0.00 0.00 0.00 0.00 0.00 0.00 0.00 0.00 0.00 0.00 0.00 0.00 0.00 0.00 0.00 0.00 0.00 0.00 0.00 0.00 0.00 0.00 0.00 0.00 0.00 0.00 0.00 0.00 0.01 0.01 0.03 0.04 0.05
0.01 0.00 0.00 0.00 0.00 0.00 0.00 0.00 0.00 0.00 0.00 0.00 0.00 0.00 0.00 0.00 0.01 0.01 0.01 0.00 0.00 0.00 0.00 0.00 0.00 0.00 0.00 0.00 0.00 0.00 0.00 0.00 0.00 0.00 0.00 0.00 0.00 0.00 0.00 0.01 0.01 0.03 0.04
0.02 0.01 0.01 0.01 0.00 0.00 0.00 0.00 0.00 0.00 0.01 0.01 0.01 0.01 0.01 0.02 0.01 0.01 0.01 0.00 0.00 0.00 0.00 0.00 0.00 0.00 0.00 0.00 0.00 0.00 0.00 0.00 0.00 0.00 0.01 0.00 0.00 0.01 0.02 0.01 0.01 0.01 0.02
0.04 0.02 0.01 0.01 0.01 0.01 0.01 0.01 0.01 0.01 0.01 0.02 0.02 0.02 0.02 0.02 0.01 0.01 0.01 0.00 0.00 0.00 0.00 0.00 0.00 0.00 0.00 0.00 0.00 0.00 0.00 0.00 0.00 0.01 0.01 0.01 0.01 0.02 0.01 0.01 0.01 0.01 0.01
0.04 0.03 0.02 0.02 0.02 0.02 0.02 0.02 0.02 0.03 0.03 0.03 0.03 0.02 0.02 0.01 0.01 0.01 0.00 0.00 0.00 0.00 0.00 0.00 0.00 0.00 0.01 0.00 0.00 0.00 0.00 0.00 0.00 0.00 0.01 0.01 0.02 0.01 0.00 0.01 0.01 0.01 0.01
0.04 0.03 0.02 0.01 0.01 0.01 0.02 0.02 0.03 0.03 0.03 0.02 0.02 0.01 0.01 0.01 0.01 0.01 0.01 0.00 0.00 0.00 0.00 0.00 0.00 0.00 0.01 0.00 0.00 0.00 0.00 0.00 0.00 0.00 0.00 0.00 0.00 0.00 0.00 0.01 0.02 0.02 0.02
0.01 0.01 0.01 0.01 0.01 0.01 0.01 0.02 0.03 0.03 0.03 0.02 0.01 0.01 0.01 0.01 0.01 0.00 0.00 0.00 0.00 0.00 0.00 0.00 0.00 0.01 0.00 0.00 0.00 0.00 0.00 0.01 0.01 0.01 0.01 0.01 0.00 0.00 0.00 0.01 0.02 0.02 0.01
0.00 0.00 0.00 0.01 0.01 0.01 0.02 0.02 0.02 0.02 0.01 0.01 0.01 0.01 0.01 0.00 0.00 0.00 0.00 0.00 0.00 0.00 0.00 0.01 0.01 0.01 0.01 0.00 0.00 0.00 0.00 0.00 0.01 0.01 0.01 0.01 0.00 0.00 0.00 0.01 0.01 0.01 0.01
0.00 0.00 0.00 0.01 0.01 0.01 0.02 0.02 0.02 0.01 0.02 0.02 0.01 0.01 0.00 0.00 0.00 0.00 0.00 0.00 0.00 0.01 0.01 0.01 0.01 0.01 0.01 0.01 0.00 0.00 0.00 0.00 0.01 0.01 0.01 0.00 0.00 0.01 0.02 0.01 0.01 0.02 0.04
0.00 0.01 0.01 0.01 0.02 0.02 0.01 0.01 0.01 0.02 0.02 0.02 0.01 0.01 0.01 0.01 0.00 0.00 0.00 0.00 0.01 0.01 0.01 0.01 0.01 0.01 0.01 0.01 0.01 0.01 0.01 0.00 0.01 0.01 0.01 0.01 0.01 0.01 0.01 0.02 0.03 0.04 0.05
0.01 0.01 0.01 0.01 0.01 0.01 0.01 0.01 0.01 0.02 0.02 0.02 0.01 0.01 0.01 0.01 0.01 0.01 0.01 0.00 0.01 0.00 0.00 0.01 0.01 0.01 0.01 0.01 0.00 0.00 0.00 0.00 0.00 0.00 0.01 0.02 0.01 0.01 0.01 0.02 0.02 0.04 0.05
0.01 0.01 0.01 0.01 0.01 0.00 0.00 0.00 0.00 0.01 0.01 0.01 0.01 0.01 0.01 0.01 0.01 0.01 0.01 0.01 0.00 0.00 0.00 0.00 0.00 0.00 0.00 0.00 0.00 0.00 0.00 0.00 0.00 0.01 0.02 0.01 0.01 0.01 0.02 0.02 0.02 0.02 0.03
MSLP
1006.83 1006.88 1006.95 1007.07 1007.27 1007.60 1008.09 1008.74 1009.55 1010.46 1011.44 1012.42 1013.36 1014.20 1014.94 1015.57 1016.08 1016.52 1016.88 1017.18 1017.45 1017.67 1017.87 1018.06 1018.24 1018.44 1018.67 1018.95 1019.28 1019.65 1020.03 1020.39 1020.70 1020.93 1021.05 1021.07 1021.01 1020.88 1020.73 1020.60 1020.50 1020.46 1020.46
1007.04 1006.97 1006.90 1006.88 1006.95 1007.18 1007.59 1008.21 1009.03 1010.01 1011.08 1012.18 1013.25 1014.22 1015.08 1015.81 1016.41 1016.91 1017.32 1017.66 1017.95 1018.19 1018.39 1018.57 1018.73 1018.89 1019.08 1019.31 1019.58 1019.90 1020.23 1020.56 1020.83 1021.03 1021.13 1021.12 1021.03 1020.87 1020.68 1020.50 1020.37 1020.29 1020.27
1007.57 1007.41 1007.23 1007.08 1007.02 1007.12 1007.43 1007.98 1008.76 1009.74 1010.84 1012.00 1013.13 1014.18 1015.13 1015.93 1016.61 1017.17 1017.64 1018.03 1018.36 1018.64 1018.86 1019.04 1019.20 1019.34 1019.50 1019.68 1019.89 1020.15 1020.42 1020.69 1020.92 1021.08 1021.15 1021.11 1020.99 1020.79 1020.57 1020.35 1020.18 1020.06 1020.02
1008.44 1008.24 1007.98 1007.72 1007.54 1007.51 1007.70 1008.14 1008.84 1009.75 1010.81 1011.95 1013.09 1014.17 1015.14 1015.99 1016.72 1017.34 1017.87 1018.32 1018.71 1019.04 1019.30 1019.51 1019.68 1019.82 1019.95 1020.09 1020.25 1020.45 1020.66 1020.87 1021.05 1021.17 1021.19 1021.12 1020.96 1020.73 1020.47 1020.21 1020.00 1019.85 1019.77
1009.61 1009.40 1009.10 1008.77 1008.49 1008.35 1008.40 1008.71 1009.28 1010.08 1011.05 1012.11 1013.20 1014.25 1015.22 1016.08 1016.83 1017.49 1018.07 1018.59 1019.04 1019.42 1019.75 1020.00 1020.19 1020.34 1020.45 1020.56 1020.68 1020.82 1020.98 1021.13 1021.26 1021.32 1021.31 1021.21 1021.01 1020.74 1020.44 1020.14 1019.88 1019.68 1019.55
1010.96 1010.79 1010.50 1010.14 1009.79 1009.54 1009.48 1009.64 1010.07 1010.72 1011.55 1012.50 1013.49 1014.47 1015.39 1016.24 1017.00 1017.69 1018.31 1018.88 1019.38 1019.83 1020.20 1020.50 1020.72 1020.88 1020.99 1021.08 1021.16 1021.25 1021.36 1021.46 1021.54 1021.56 1021.51 1021.37 1021.14 1020.84 1020.50 1020.15 1019.84 1019.58 1019.40
1012.35 1012.26 1012.01 1011.65 1011.27 1010.95 1010.78 1010.82 1011.10 1011.60 1012.29 1013.10 1013.97 1014.86 1015.72 1016.52 1017.27 1017.97 1018.61 1019.21 1019.76 1020.25 1020.66 1020.99 1021.24 1021.40 1021.51 1021.58 1021.64 1021.69 1021.75 1021.81 1021.84 1021.83 1021.75 1021.58 1021.33 1021.01 1020.63 1020.25 1019.88 1019.57 1019.32
1013.65 1013.66 1013.47 1013.15 1012.76 1012.41 1012.17 1012.10 1012.26 1012.63 1013.17 1013.85 1014.61 1015.40 1016.18 1016.94 1017.65 1018.33 1018.98 1019.59 1020.15 1020.66 1021.09 1021.44 1021.70 1021.87 1021.97 1022.02 1022.05 1022.08 1022.10 1022.12 1022.12 1022.08 1021.98 1021.80 1021.54 1021.20 1020.81 1020.40 1020.00 1019.63 1019.33
1014.74 1014.84 1014.74 1014.47 1014.11 1013.76 1013.48 1013.36 1013.43 1013.69 1014.13 1014.70 1015.36 1016.06 1016.77 1017.46 1018.13 1018.78 1019.40 1019.99 1020.54 1021.04 1021.47 1021.81 1022.06 1022.23 1022.32 1022.36 1022.36 1022.36 1022.36 1022.35 1022.33 1022.28 1022.17 1021.99 1021.73 1021.40 1021.02 1020.59 1020.17 1019.77 1019.42
1015.54 1015.74 1015.72 1015.52 1015.22 1014.89 1014.63 1014.49 1014.52 1014.73 1015.10 1015.60 1016.18 1016.81 1017.45 1018.08 1018.70 1019.29 1019.86 1020.41 1020.92 1021.39 1021.79 1022.10 1022.34 1022.48 1022.56 1022.58 1022.57 1022.54 1022.52 1022.49 1022.46 1022.40 1022.30 1022.13 1021.89 1021.59 1021.22 1020.81 1020.39 1019.98 1019.59
1016.06 1016.33 1016.38 1016.26 1016.03 1015.77 1015.55 1015.45 1015.49 1015.70 1016.05 1016.51 1017.05 1017.62 1018.20 1018.77 1019.32 1019.85 1020.35 1020.83 1021.28 1021.70 1022.05 1022.34 1022.54 1022.67 1022.73 1022.73 1022.70 1022.66 1022.62 1022.58 1022.53 1022.47 1022.38 1022.23 1022.02 1021.75 1021.42 1021.04 1020.64 1020.23 1019.82
1016.36 1016.68 1016.80 1016.76 1016.61 1016.43 1016.30 1016.26 1016.36 1016.60 1016.96 1017.42 1017.94 1018.47 1019.00 1019.51 1019.99 1020.43 1020.86 1021.27 1021.65 1022.00 1022.31 1022.55 1022.74 1022.85 1022.90 1022.89 1022.85 1022.79 1022.73 1022.67 1022.61 1022.54 1022.45 1022.32 1022.14 1021.90 1021.61 1021.27 1020.89 1020.49 1020.07
1016.55 1016.90 1017.07 1017.09 1017.03 1016.96 1016.92 1016.98 1017.17 1017.47 1017.87 1018.35 1018.85 1019.36 1019.84 1020.28 1020.68 1021.05 1021.39 1021.72 1022.03 1022.33 1022.59 1022.82 1022.98 1023.09 1023.13 1023.12 1023.07 1022.99 1022.91 1022.82 1022.73 1022.64 1022.54 1022.41 1022.24 1022.03 1021.76 1021.45 1021.10 1020.70 1020.29
1016.74 1017.10 1017.30 1017.38 1017.41 1017.44 1017.51 1017.68 1017.95 1018.33 1018.78 1019.28 1019.78 1020.26 1020.69 1021.07 1021.39 1021.68 1021.94 1022.20 1022.45 1022.70 1022.94 1023.15 1023.31 1023.42 1023.47 1023.46 1023.40 1023.30 1023.18 1023.05 1022.92 1022.79 1022.65 1022.50 1022.32 1022.11 1021.86 1021.56 1021.21 1020.82 1020.39
1017.01 1017.36 1017.59 1017.73 1017.83 1017.95 1018.13 1018.40 1018.76 1019.20 1019.70 1020.21 1020.70 1021.15 1021.52 1021.83 1022.08 1022.29 1022.48 1022.68 1022.89 1023.11 1023.33 1023.54 1023.72 1023.84 1023.90 1023.89 1023.81 1023.69 1023.52 1023.34 1023.14 1022.95 1022.76 1022.56 1022.35 1022.11 1021.84 1021.53 1021.18 1020.77 1020.33
1017.43 1017.77 1018.01 1018.18 1018.35 1018.54 1018.81 1019.15 1019.58 1020.08 1020.60 1021.11 1021.58 1021.98 1022.30 1022.53 1022.71 1022.85 1022.98 1023.14 1023.31 1023.52 1023.74 1023.97 1024.16 1024.30 1024.36 1024.35 1024.25 1024.09 1023.87 1023.62 1023.35 1023.08 1022.82 1022.55 1022.29 1022.00 1021.70 1021.35 1020.96 1020.53 1020.05
1018.00 1018.32 1018.56 1018.76 1018.97 1019.22 1019.54 1019.94 1020.40 1020.92 1021.44 1021.93 1022.36 1022.70 1022.95 1023.12 1023.23 1023.32 1023.40 1023.52 1023.68 1023.89 1024.12 1024.35 1024.56 1024.71 1024.78 1024.75 1024.63 1024.42 1024.15 1023.83 1023.48 1023.13 1022.78 1022.44 1022.11 1021.76 1021.40 1021.01 1020.57 1020.09 1019.58
1018.70 1019.00 1019.23 1019.44 1019.67 1019.94 1020.28 1020.70 1021.17 1021.67 1022.16 1022.61 1022.98 1023.26 1023.45 1023.55 1023.61 1023.65 1023.70 1023.80 1023.95 1024.15 1024.39 1024.63 1024.85 1025.00 1025.06 1025.02 1024.86 1024.61 1024.28 1023.89 1023.48 1023.05 1022.63 1022.22 1021.82 1021.41 1020.98 1020.53 1020.05 1019.52 1018.96
1019.45 1019.73 1019.95 1020.15 1020.37 1020.64 1020.98 1021.38 1021.82 1022.28 1022.73 1023.11 1023.42 1023.64 1023.76 1023.82 1023.83 1023.83 1023.87 1023.95 1024.09 1024.29 1024.53 1024.77 1024.98 1025.13 1025.17 1025.10 1024.92 1024.63 1024.25 1023.81 1023.34 1022.85 1022.38 1021.91 1021.45 1020.99 1020.51 1020.01 1019.46 1018.89 1018.28
1020.19 1020.44 1020.64 1020.82 1021.02 1021.26 1021.57 1021.92 1022.32 1022.72 1023.10 1023.42 1023.67 1023.82 1023.90 1023.91 1023.90 1023.88 1023.90 1023.98 1024.12 1024.32 1024.55 1024.78 1024.98 1025.10 1025.12 1025.03 1024.81 1024.49 1024.07 1023.60 1023.10 1022.58 1022.07 1021.57 1021.07 1020.57 1020.05 1019.50 1018.92 1018.30 1017.66
1020.83 1021.06 1021.22 1021.37 1021.54 1021.74 1022.00 1022.30 1022.64 1022.98 1023.29 1023.55 1023.73 1023.84 1023.88 1023.87 1023.84 1023.83 1023.85 1023.93 1024.07 1024.27 1024.49 1024.70 1024.88 1024.97 1024.97 1024.84 1024.60 1024.26 1023.83 1023.34 1022.82 1022.30 1021.77 1021.26 1020.74 1020.22 1019.67 1019.09 1018.47 1017.82 1017.14
1021.34 1021.53 1021.66 1021.78 1021.90 1022.06 1022.27 1022.52 1022.79 1023.06 1023.31 1023.51 1023.66 1023.73 1023.76 1023.74 1023.72 1023.71 1023.75 1023.84 1023.99 1024.18 1024.39 1024.59 1024.74 1024.81 1024.78 1024.64 1024.38 1024.03 1023.59 1023.10 1022.59 1022.06 1021.54 1021.02 1020.50 1019.96 1019.39 1018.79 1018.14 1017.46 1016.77
1021.67 1021.83 1021.93 1022.01 1022.10 1022.22 1022.38 1022.58 1022.80 1023.01 1023.21 1023.37 1023.48 1023.54 1023.56 1023.56 1023.56 1023.58 1023.64 1023.75 1023.92 1024.11 1024.32 1024.51 1024.64 1024.69 1024.64 1024.48 1024.22 1023.86 1023.42 1022.94 1022.43 1021.91 1021.39 1020.87 1020.34 1019.79 1019.21 1018.58 1017.92 1017.22 1016.52
1021.85 1021.98 1022.05 1022.11 1022.17 1022.26 1022.38 1022.54 1022.71 1022.89 1023.05 1023.17 1023.26 1023.32 1023.35 1023.36 1023.39 1023.44 1023.54 1023.68 1023.86 1024.07 1024.29 1024.47 1024.60 1024.64 1024.58 1024.42 1024.15 1023.79 1023.36 1022.88 1022.37 1021.85 1021.32 1020.78 1020.24 1019.67 1019.06 1018.42 1017.74 1017.04 1016.33
1021.91 1022.01 1022.06 1022.10 1022.15 1022.22 1022.32 1022.45 1022.58 1022.72 1022.85 1022.96 1023.03 1023.08 1023.12 1023.16 1023.21 1023.30 1023.44 1023.61 1023.83 1024.06 1024.29 1024.48 1024.62 1024.66 1024.60 1024.44 1024.17 1023.81 1023.38 1022.89 1022.37 1021.83 1021.28 1020.72 1020.14 1019.54 1018.91 1018.25 1017.56 1016.86 1016.16
1021.90 1021.98 1022.03 1022.07 1022.11 1022.18 1022.26 1022.36 1022.47 1022.58 1022.68 1022.75 1022.81 1022.86 1022.90 1022.95 1023.03 1023.15 1023.32 1023.53 1023.78 1024.04 1024.29 1024.51 1024.66 1024.71 1024.67 1024.51 1024.25 1023.89 1023.45 1022.94 1022.40 1021.83 1021.23 1020.63 1020.01 1019.36 1018.70 1018.02 1017.33 1016.63 1015.95
Thickness
5823 5824 5821 5817 5810 5802 5794 5787 5779 5772 5764 5756 5747 5737 5727 5716 5707 5700 5694 5689 5683 5679 5675 5670 5666 5663 5662 5659 5658 5656 5652 5650 5650 5651 5649 5648 5646 5645 5642 5641 5640 5637 5633
5813 5815 5816 5813 5808 5801 5793 5786 5777 5771 5762 5754 5744 5732 5719 5707 5697 5690 5685 5679 5673 5669 5665 5661 5659 5655 5653 5651 5650 5647 5645 5643 5641 5642 5641 5641 5640 5634 5635 5631 5628 5625 5623
5801 5805 5808 5808 5806 5799 5793 5786 5777 5769 5759 5749 5736 5723 5710 5700 5690 5683 5677 5672 5666 5661 5657 5653 5650 5646 5645 5642 5639 5638 5637 5636 5632 5631 5631 5631 5634 5635 5628 5622 5617 5612 5610
5791 5796 5800 5801 5800 5797 5791 5783 5773 5763 5753 5742 5731 5720 5709 5696 5687 5680 5675 5668 5662 5654 5648 5645 5642 5639 5637 5634 5631 5629 5628 5626 5626 5622 5618 5616 5614 5614 5617 5613 5609 5602 5596
5774 5779 5783 5787 5789 5787 5782 5774 5764 5754 5745 5735 5725 5716 5704 5695 5685 5676 5669 5661 5653 5647 5640 5636 5633 5630 5627 5625 5622 5619 5618 5617 5616 5615 5611 5606 5602 5599 5597 5598 5594 5590 5586
5754 5759 5764 5767 5768 5768 5764 5758 5749 5740 5732 5725 5716 5708 5697 5688 5679 5670 5661 5654 5646 5639 5633 5628 5624 5621 5618 5615 5611 5609 5607 5605 5601 5600 5598 5595 5593 5590 5586 5582 5579 5576 5573
5736 5739 5742 5744 5744 5744 5742 5739 5732 5724 5718 5711 5704 5697 5689 5680 5670 5661 5653 5644 5636 5629 5624 5619 5615 5612 5609 5605 5601 5597 5594 5591 5587 5584 5582 5580 5577 5573 5568 5564 5563 5561 5558
5718 5720 5722 5723 5724 5723 5722 5719 5714 5708 5702 5697 5690 5683 5677 5668 5659 5650 5642 5634 5626 5619 5613 5609 5604 5601 5597 5593 5589 5586 5582 5577 5573 5570 5565 5563 5562 5557 5552 5547 5543 5543 5543
5701 5703 5704 5705 5706 5705 5704 5702 5698 5692 5687 5681 5675 5668 5661 5653 5645 5636 5629 5621 5614 5608 5602 5597 5593 5589 5584 5580 5576 5573 5568 5564 5561 5557 5552 5547 5545 5539 5534 5528 5524 5521 5523
5687 5687 5688 5688 5689 5689 5687 5686 5682 5677 5672 5667 5661 5653 5646 5639 5631 5624 5616 5608 5601 5595 5590 5584 5580 5575 5571 5567 5563 5560 5554 5549 5545 5538 5533 5527 5526 5521 5516 5512 5507 5502 5500
5673 5672 5673 5673 5674 5674 5673 5670 5666 5662 5657 5651 5645 5638 5631 5624 5617 5610 5602 5594 5588 5582 5577 5571 5566 5562 5557 5553 5548 5545 5539 5534 5529 5523 5518 5513 5507 5503 5499 5496 5492 5488 5483
5661 5660 5660 5660 5660 5659 5657 5654 5651 5647 5641 5635 5629 5622 5615 5608 5601 5594 5587 5580 5574 5568 5562 5557 5552 5547 5542 5537 5533 5528 5523 5518 5513 5508 5503 5498 5494 5488 5485 5481 5477 5471 5464
5649 5649 5648 5647 5646 5645 5642 5639 5636 5631 5626 5620 5614 5606 5600 5593 5585 5578 5571 5564 5558 5552 5546 5541 5536 5531 5527 5521 5517 5512 5508 5503 5498 5493 5488 5484 5479 5475 5472 5466 5462 5456 5450
5639 5637 5635 5632 5631 5629 5627 5623 5619 5615 5610 5604 5598 5591 5584 5576 5569 5561 5554 5548 5542 5536 5531 5526 5521 5516 5512 5507 5502 5498 5493 5488 5484 5480 5475 5471 5467 5462 5458 5453 5448 5442 5437
5626 5623 5620 5617 5614 5611 5608 5605 5601 5597 5592 5586 5579 5572 5564 5557 5550 5543 5536 5530 5525 5520 5515 5511 5506 5501 5497 5489 5483 5480 5479 5475 5472 5468 5464 5460 5454 5447 5441 5437 5434 5429 5426
5612 5607 5603 5600 5596 5593 5590 5585 5581 5576 5571 5565 5559 5552 5545 5538 5531 5524 5519 5513 5508 5504 5500 5495 5491 5486 5480 5467 5462 5460 5463 5462 5460 5457 5453 5449 5445 5440 5432 5427 5421 5417 5417
5599 5592 5587 5582 5578 5575 5570 5566 5562 5557 5552 5545 5539 5533 5526 5519 5513 5508 5503 5499 5493 5488 5484 5479 5475 5470 5460 5452 5448 5446 5446 5450 5448 5445 5442 5439 5436 5429 5426 5421 5418 5417 5416
5582 5576 5570 5565 5561 5556 5552 5548 5544 5539 5534 5527 5521 5515 5509 5504 5498 5494 5489 5483 5479 5474 5469 5463 5459 5454 5447 5439 5435 5433 5437 5439 5437 5435 5433 5430 5426 5423 5416 5415 5415 5417 5417
5566 5560 5555 5551 5546 5541 5537 5533 5528 5523 5518 5511 5505 5499 5495 5490 5485 5480 5474 5469 5464 5459 5455 5449 5444 5440 5435 5427 5424 5421 5427 5429 5427 5426 5424 5421 5419 5415 5410 5410 5414 5417 5419
5550 5546 5541 5537 5532 5527 5523 5519 5513 5508 5502 5497 5492 5487 5482 5477 5471 5465 5459 5454 5449 5445 5442 5436 5431 5428 5424 5417 5413 5409 5417 5418 5417 5417 5417 5416 5413 5410 5408 5410 5413 5416 5418
5535 5532 5528 5523 5518 5514 5510 5506 5501 5495 5489 5485 5479 5474 5467 5461 5455 5450 5444 5440 5437 5432 5428 5425 5421 5416 5412 5409 5404 5401 5405 5407 5409 5411 5413 5413 5409 5409 5409 5409 5413 5414 5413
5523 5519 5515 5510 5505 5502 5498 5493 5488 5483 5478 5473 5467 5460 5454 5449 5443 5437 5432 5428 5424 5422 5418 5413 5410 5407 5403 5399 5397 5395 5394 5394 5401 5405 5408 5410 5407 5409 5411 5413 5415 5414 5415
5512 5508 5504 5499 5494 5491 5488 5483 5477 5472 5466 5460 5454 5448 5442 5436 5431 5426 5422 5419 5414 5411 5408 5404 5401 5398 5395 5392 5389 5389 5390 5391 5395 5401 5402 5405 5408 5411 5416 5417 5417 5418 5421
5502 5499 5496 5491 5486 5482 5478 5473 5467 5462 5456 5449 5443 5437 5432 5426 5420 5416 5414 5410 5406 5402 5399 5395 5392 5390 5388 5386 5384 5384 5387 5390 5394 5399 5404 5407 5411 5414 5416 5419 5422 5423 5422
5494 5491 5487 5483 5478 5473 5468 5463 5457 5452 5446 5440 5434 5429 5424 5419 5412 5409 5403 5399 5394 5388 5385 5385 5383 5381 5379 5375 5370 5372 5379 5383 5389 5393 5403 5409 5413 5415 5417 5420 5423 5424 5424
5487 5483 5479 5475 5469 5465 5459 5454 5448 5443 5437 5432 5427 5423 5418 5412 5409 5405 5399 5387 5383 5377 5374 5370 5368 5371 5368 5367 5369 5372 5376 5381 5387 5394 5403 5406 5408 5411 5414 5418 5421 5424 5426